Reflectivity
-20 -20 -20 -20 -20 -20 -20 -20 -20 -20 -20 -20 -20 -18 -9 11 12 15 6 -20 -20 -19 -20 18 15 10 -10 -2 -0 9 14 -15 -1 21 12 6 30 29 29 28 27 12 1
-11 -20 -20 -20 -20 -20 -20 -20 -20 -20 -20 -20 -20 -20 1 10 12 17 6 11 -20 -20 7 20 3 12 2 -2 -17 -5 -1 -20 -19 23 9 -19 13 25 29 30 23 15 11
9 5 4 -12 -20 -20 -20 -20 -20 -20 -20 -20 -20 0 -6 -3 8 -13 -15 -5 -4 11 7 16 16 13 11 -3 -9 -6 -14 -20 -16 16 -3 6 15 21 30 25 20 25 26
-15 -16 -20 -20 -20 -20 -20 -20 -20 -20 -20 -20 -19 14 15 8 7 -6 -10 -13 -5 17 3 5 14 7 4 -4 -20 -13 -20 -20 -16 -9 8 18 13 23 20 24 22 23 17
-20 -20 -20 -20 -20 -20 -20 -20 -20 -20 -20 -20 -20 10 8 16 13 -2 -6 -19 6 17 13 -19 -7 27 18 -15 -20 -20 -20 -20 -10 10 0 19 19 17 26 20 26 24 24
-20 -20 -20 -20 -20 -20 -20 -20 -20 -20 -20 -20 8 20 13 13 14 19 17 -18 13 -20 -6 -16 18 17 -1 -0 -20 6 7 -19 -19 -20 -19 10 18 24 28 13 17 25 24
-20 -20 -20 -20 -20 -20 -20 -20 -20 -20 -20 -15 -20 12 13 3 8 7 2 -7 14 11 12 14 15 -20 -20 -20 -1 -16 -17 -18 -19 -20 5 17 24 25 30 25 23 20 27
-20 -20 -20 -20 -20 -20 -20 -20 -20 -20 -20 -7 3 10 8 17 13 7 7 4 0 17 22 -2 -20 -20 -14 -20 -20 -2 7 -5 -7 -20 -20 11 25 27 29 22 25 25 30
-20 -20 -20 -20 -20 -20 -20 -20 -20 -20 -20 -3 -3 -12 8 14 4 11 5 18 18 24 10 -7 -20 -20 -1 13 -2 -19 -1 12 7 16 18 24 22 29 22 26 28 26 15
-20 -20 -20 -20 -20 -20 -20 -20 -20 -20 -20 -9 -20 -20 17 -20 -6 3 24 16 16 7 9 -17 -4 -16 17 11 4 -20 -20 -12 -4 13 18 14 20 25 23 10 23 25 24
-20 -20 -20 -20 -20 -20 -20 -20 -20 -20 -20 -20 -13 -20 17 20 -1 30 27 12 6 5 15 19 11 15 13 9 -3 -20 14 9 12 16 21 21 23 23 24 28 24 10 18
-20 -20 -20 -20 -20 -20 -20 -20 -20 -20 -20 -12 5 16 21 -0 29 24 27 8 3 2 13 17 5 13 15 17 16 10 9 11 -6 19 -6 8 20 21 18 14 11 19 21
-20 -20 -20 -20 -20 -20 -20 -20 -20 -20 -9 -5 25 18 24 -2 22 29 39 36 31 36 14 16 19 16 14 21 15 19 14 4 -1 5 -0 -2 1 17 5 18 17 4 17
-20 -20 -20 -20 -20 -20 -20 -20 -20 -18 -18 8 14 15 21 29 23 37 35 28 24 24 19 9 14 15 17 15 8 11 -1 -18 -15 -17 -5 4 13 -4 3 6 -5 10 19
-20 -20 -20 -20 -20 -20 -17 -9 -16 -2 7 6 15 16 18 26 30 29 30 33 25 26 27 2 5 -1 -3 0 1 -1 -6 -1 3 9 10 -1 8 15 18 21 24 16 21
-20 -20 -20 -20 -20 -20 -20 -20 -10 8 8 12 16 21 21 28 29 30 32 37 34 38 36 31 18 12 12 9 9 8 1 17 7 10 13 17 20 23 21 15 22 24 20
-20 -20 -20 -20 -20 -20 -20 -8 -6 9 16 19 22 23 25 28 28 26 27 28 28 28 29 29 24 14 14 17 20 20 21 22 19 19 18 22 21 23 23 24 22 17 17
-20 -20 -20 -20 -20 -20 -20 -20 -0 7 12 18 20 23 22 24 26 29 30 31 32 29 28 28 29 28 25 25 24 24 23 26 26 26 24 24 22 20 20 18 16 15 13
-20 -20 -20 -20 -20 -20 -20 -20 -20 -4 9 13 18 20 21 22 24 23 25 25 26 27 27 27 27 24 25 25 25 25 25 23 21 18 17 14 16 16 12 3 -19 -20 1
-20 -20 -20 -20 -20 -20 -20 -20 -20 -20 -16 5 8 13 17 18 16 14 16 20 21 23 24 23 21 20 19 19 19 20 17 12 8 0 -15 -15 0 -3 -7 2 1 -12 -20
-20 -20 -20 -20 -20 -20 -20 -20 -20 -20 -20 -20 -1 5 8 10 12 14 11 11 15 16 15 16 15 14 14 16 19 19 17 15 13 7 7 6 2 -1 -10 -16 -20 -20 -20
-20 -20 -20 -20 -20 -20 -20 -20 -20 -20 -20 -20 -20 -20 -8 2 7 4 -1 0 3 7 9 11 12 10 11 10 10 10 8 8 6 2 -6 -11 -18 -20 -20 -20 -20 -20 -20
-20 -20 -20 -20 -20 -20 -20 -20 -20 -20 -20 -20 -20 -20 -20 -20 -19 -15 -5 -2 -6 -7 -2 -2 -1 -1 0 4 7 8 5 1 -3 -5 -13 -20 -20 -20 -20 -20 -20 -20 -20
-20 -20 -20 -20 -20 -20 -20 -20 -20 -20 -20 -20 -20 -20 -20 -20 -20 -20 -20 -20 -20 -20 -20 -20 -20 -19 -19 -19 -12 -9 -9 -16 -20 -20 -20 -20 -20 -20 -20 -20 -20 -20 -20
-20 -20 -20 -20 -20 -20 -20 -20 -20 -20 -20 -20 -20 -20 -20 -20 -20 -20 -20 -20 -20 -20 -20 -20 -20 -20 -20 -20 -20 -20 -20 -20 -20 -20 -20 -20 -20 -20 -20 -20 -20 -20 -20
-20 -20 -20 -20 -20 -20 -20 -20 -20 -20 -20 -20 -20 -20 -20 -20 -20 -20 -20 -20 -20 -20 -20 -20 -20 -20 -20 -20 -20 -20 -20 -20 -20 -20 -20 -20 -20 -20 -20 -20 -20 -20 -20
Wind_Speed
11 10 7 7 8 9 8 8 8 9 9 10 11 13 13 15 13 14 13 12 14 13 12 13 13 11 8 7 7 7 7 7 7 2 2 4 10 10 7 5 5 4 3
12 11 11 10 9 7 7 9 10 11 11 12 12 14 15 16 14 14 13 12 14 14 13 13 13 9 11 10 8 9 8 8 6 5 3 3 5 12 8 8 5 4 3
14 12 10 10 9 9 9 10 10 12 13 12 14 15 17 17 15 14 13 13 15 14 14 14 13 13 11 8 8 8 7 6 7 5 4 2 3 4 6 5 6 7 6
12 11 11 13 13 13 13 12 12 12 13 13 13 15 15 15 14 14 13 13 14 13 13 14 13 14 13 12 10 10 9 8 7 5 4 6 4 4 5 5 3 3 4
12 14 15 15 14 13 15 14 13 13 13 13 14 16 13 13 10 13 13 13 14 12 12 12 11 13 14 12 8 10 10 8 6 7 5 3 5 6 8 5 4 4 2
10 12 12 13 14 14 14 16 16 14 13 14 15 15 11 9 12 15 14 12 13 13 13 11 10 13 13 14 14 13 12 11 10 7 7 9 9 8 6 8 7 4 3
15 15 14 15 16 16 16 15 17 16 14 15 14 14 11 11 15 17 17 12 13 11 11 11 9 8 11 10 11 12 11 11 9 11 11 10 8 12 11 9 8 4 4
15 14 15 16 16 17 16 16 16 14 14 14 13 15 11 9 16 18 18 13 12 12 11 12 11 10 11 9 8 7 5 5 2 3 8 6 7 10 14 9 10 7 7
16 14 15 16 16 16 16 17 15 14 14 13 13 14 10 9 17 19 17 11 9 9 9 9 10 10 11 16 11 10 7 5 11 16 17 15 13 9 13 11 8 8 3
15 14 14 15 15 17 17 16 14 13 13 9 10 10 9 9 14 19 18 7 9 6 5 5 7 11 16 18 12 12 10 6 7 6 6 9 10 12 13 1 12 11 5
12 12 13 15 16 17 16 14 13 13 11 9 10 10 12 11 5 15 14 10 9 8 6 3 2 12 16 13 13 10 8 12 8 8 7 6 7 7 6 6 6 5 5
10 10 13 14 12 15 17 17 15 14 12 11 12 10 10 12 17 4 15 16 12 10 6 4 7 16 16 14 9 18 20 13 7 7 7 6 7 6 6 7 9 10 8
10 11 10 12 12 13 15 16 13 15 12 11 10 10 10 10 10 19 17 20 18 12 8 15 22 24 24 17 18 16 12 8 8 8 8 7 5 5 6 7 10 13 14
10 10 10 9 11 11 11 12 13 15 13 12 12 11 10 11 9 9 7 10 22 15 13 12 16 16 16 11 9 10 7 6 7 9 8 7 5 5 7 5 7 8 10
12 11 11 9 10 10 9 11 12 16 19 13 11 11 11 12 12 14 14 10 8 9 10 10 10 9 9 9 8 8 7 7 8 8 8 8 8 8 8 6 7 7 8
10 9 8 8 8 8 9 9 18 22 28 31 31 19 10 21 25 23 23 25 19 18 9 10 10 9 9 9 9 9 8 10 8 8 8 8 8 8 8 8 8 9 9
8 8 7 9 9 10 10 10 11 13 21 26 29 30 29 27 24 24 26 29 24 17 12 10 11 10 9 9 9 9 9 8 9 9 9 8 8 9 9 8 9 9 9
7 10 6 7 7 8 8 9 9 10 11 12 17 23 26 29 29 27 21 19 14 16 12 11 11 10 9 9 9 9 9 9 9 9 9 8 8 9 9 8 7 9 8
8 7 7 7 7 8 8 8 8 9 9 9 9 14 18 24 27 28 26 14 12 12 11 12 10 10 10 10 9 9 10 9 8 8 8 8 7 8 8 8 8 9 9
7 11 9 7 7 8 8 9 8 9 9 10 11 11 10 12 14 13 13 12 12 11 10 10 10 10 10 10 9 8 8 8 8 8 8 8 7 7 8 8 6 7 7
5 7 9 7 8 7 7 8 8 8 8 8 9 12 16 11 10 11 11 11 11 10 10 10 10 10 9 9 8 8 8 8 8 8 7 7 7 8 7 7 7 6 6
6 6 7 7 6 7 7 7 7 8 8 8 8 10 15 10 10 10 10 10 9 10 9 9 9 8 8 8 7 8 8 8 7 7 7 6 6 6 6 7 7 6 6
6 6 7 6 6 7 7 7 7 7 7 8 8 8 9 9 9 9 9 9 9 9 8 8 8 8 8 8 8 7 7 6 5 5 7 6 6 6 6 7 6 6 6
6 7 6 6 6 6 6 6 6 8 7 6 7 7 7 7 8 9 8 7 8 8 8 8 9 11 8 8 7 7 7 5 5 5 7 6 6 6 6 6 6 6 6
6 6 6 6 5 4 5 5 5 5 6 5 5 5 5 6 7 6 6 6 6 7 9 7 7 9 11 11 10 11 10 11 8 6 5 7 7 7 5 5 4 5 4
7 7 6 5 5 4 4 4 5 4 4 4 4 4 4 5 5 4 5 6 6 6 7 6 8 11 10 9 11 10 10 10 8 8 5 5 6 5 5 6 7 4 5
Wind_Direction
31 22 12 5 355 350 343 324 305 295 280 270 266 263 240 228 214 211 208 206 202 197 193 185 188 181 186 189 199 196 201 208 224 187 156 183 180 177 157 155 142 146 149
21 9 11 3 354 343 321 305 302 287 281 266 259 254 245 231 213 207 205 207 203 193 192 183 188 178 188 191 198 193 200 203 203 179 168 159 187 173 147 132 120 96 99
11 2 354 353 342 328 316 308 300 287 277 271 268 245 239 232 215 204 205 207 210 202 190 190 185 179 191 190 191 190 193 188 198 189 166 156 99 137 91 79 107 93 80
355 353 355 354 346 334 323 315 299 288 283 282 271 250 235 227 219 204 196 209 212 201 189 191 186 184 192 193 188 191 186 190 180 178 180 173 143 128 129 137 118 82 94
357 1 355 346 335 326 328 318 306 299 292 285 279 266 232 224 208 201 196 206 203 192 187 184 184 186 190 191 185 189 181 189 179 193 184 154 156 154 171 152 115 107 70
355 1 343 338 335 333 326 323 314 305 301 292 284 261 232 210 192 194 194 197 198 188 183 181 182 183 191 191 186 181 184 187 187 186 185 189 175 163 140 152 133 135 163
8 357 341 344 337 330 324 318 318 311 302 293 285 266 233 213 191 191 189 192 190 187 177 178 179 182 183 196 199 188 186 191 186 189 191 191 176 174 152 151 161 154 160
0 351 348 341 336 330 325 321 315 307 302 288 282 275 236 214 188 188 189 192 185 179 171 174 179 177 186 169 144 119 86 60 39 187 198 184 178 162 168 168 159 107 72
2 353 350 342 335 331 328 323 316 311 302 296 279 274 221 214 191 186 181 185 164 162 161 169 179 173 164 148 144 135 117 86 68 87 88 79 67 84 145 125 145 145 120
357 354 348 340 343 342 332 327 320 316 306 308 325 338 259 215 187 184 179 160 132 124 88 107 157 161 156 154 150 154 151 159 137 108 82 60 54 58 50 352 161 172 124
350 344 349 351 352 349 342 341 336 335 333 346 11 6 354 1 233 177 162 150 153 125 135 121 24 150 158 156 148 163 163 137 119 107 95 81 61 56 47 40 39 136 139
347 347 358 355 354 355 354 356 355 356 356 1 19 11 10 4 4 347 145 124 133 128 124 97 93 104 98 94 88 111 117 117 113 106 98 79 77 62 54 59 63 67 55
350 350 356 358 0 3 7 7 8 10 10 8 14 20 10 5 358 36 67 93 96 98 96 103 98 95 93 83 96 103 107 111 116 102 91 80 76 94 92 81 79 80 68
356 357 356 359 2 8 19 17 16 21 18 16 17 20 18 19 8 8 48 73 84 90 93 85 85 85 82 86 76 63 65 82 105 110 105 104 96 82 77 72 85 83 77
3 4 2 359 360 10 15 22 24 26 25 23 19 18 30 31 27 53 50 56 74 85 95 88 83 80 82 78 72 74 77 81 87 99 102 102 93 87 75 64 68 73 85
6 8 357 356 2 7 16 6 21 30 30 32 33 31 28 46 46 44 62 70 59 70 62 79 79 75 81 86 85 81 75 82 87 89 90 91 91 89 89 78 79 82 91
1 3 359 6 7 12 15 11 7 6 21 29 28 31 36 38 43 51 55 62 60 65 72 60 70 70 69 76 83 81 81 75 81 85 82 83 88 85 87 89 90 97 92
3 11 9 5 9 13 16 18 16 16 11 6 13 26 29 39 45 45 52 59 52 50 54 57 60 64 65 63 65 76 76 77 75 76 80 79 81 90 92 82 87 100 98
18 19 10 10 13 17 21 23 27 26 23 19 10 15 16 32 41 42 46 52 55 53 52 54 52 57 60 61 62 61 63 66 74 82 81 86 88 91 87 92 87 84 96
16 26 26 19 18 19 22 26 24 27 30 27 26 19 11 26 36 30 34 40 46 47 49 52 51 51 52 58 57 63 72 72 69 70 67 71 74 84 89 88 84 90 81
11 26 31 34 31 28 26 24 23 26 32 36 35 22 30 44 41 38 36 34 35 37 40 45 42 40 43 48 59 66 69 70 68 70 72 68 76 83 82 85 89 87 94
24 29 34 38 36 35 39 35 28 28 26 28 27 29 33 43 41 44 41 37 37 40 37 48 50 44 39 37 46 58 60 62 65 70 72 72 78 83 87 86 84 81 82
24 31 38 39 43 40 43 42 41 37 34 32 27 28 30 37 42 44 43 37 37 38 34 43 52 52 44 44 43 43 59 50 41 68 80 77 80 84 85 86 90 83 78
30 32 36 41 42 48 43 41 44 46 42 38 38 40 40 41 43 42 42 41 43 43 41 45 45 45 39 39 35 39 47 40 47 56 79 92 88 83 86 87 88 88 87
24 34 44 44 43 36 44 44 44 40 47 42 42 38 39 46 51 47 47 48 48 51 50 46 48 50 49 47 43 42 35 43 47 45 68 82 91 90 92 90 92 86 81
27 31 33 35 37 36 42 52 52 49 46 36 37 40 40 53 52 49 57 62 62 59 59 53 53 52 49 43 44 41 38 41 44 43 65 84 90 84 83 89 84 89 89